www.pogodaiklimat.ru

Погода и климат >> Архив погоды >> Россия >> Якутия >> Ярольин


ПОГОДА в Ярольине

  • Прогноз погоды в Ярольине
  • Монитор погоды в Ярольине

АРХИВ ПОГОДЫ в Ярольине

Время (UTC), дата Ветер
(напр.,м/с)
 
Видим.   Явления Облачность Т
(С)
Тd
(С)
f
(%)
Тe
(С)
Тes
(С)
Комфортность P
(гПа)
Po
(гПа)
Тmin
(С)
Tmax
(С)
R
(мм)
R24
(мм)
S
(см)
03 13.06 ЮВ 5 50 км 1/0
[Ci fib]
+13.2 -2.2 34 +12 +17 1011.1 983.2
06 13.06 ЮВ 4 50 км 3/3 600 м
[Cu hum]
+15.0 +0.2 36 +14 +19 1010.1 982.4
09 13.06 ЮВ 5 50 км 5/1 600 м
[Cu hum Cs]
+16.9 +0.3 32 +16 +19 1008.3 980.8
12 13.06 ЮВ 4
{10}
50 км 10/0
[Cs]
+17.1 +0.7 33 +17 +18 1007.0 979.5 +17.5
15 13.06 ЮВ 2 50 км 9/3 1000 м
[Sc Cs]
+15.2 +1.9 41 +15 +15 1006.4 978.7
18 13.06 ЮВ 2 50 км 10/8 1000 м
[Sc Ac trans]
+12.5 +1.8 48 +12 +12 1004.8 976.9
21 13.06 ЮВ 3 50 км 9/8 1000 м
[Sc Ac lent]
+14.8 +4.0 48 +14 +14 1003.6 976.0
00 14.06 ЮВ 4 50 км 9/3 1000 м
[Sc Ac lent Cc]
+17.1 +8.1 55 +17 +18 1002.7 975.4 +12.4
03 14.06 Ю 7-11
{11}
50 км 9/4 1000 м
[Sc Ac lent]
+19.4 +8.7 50 +20 +20 1001.2 974.2
06 14.06 Ю 7-11
{13}
50 км 8/0
[Ac lent Ci fib]
+23.4 +10.8 45 +26 +28 жарко 999.3 972.7
09 14.06 Ю 9-14
{14}
50 км 10/0
[Cs]
+25.0 +11.4 43 +26 +27 жарко 996.9 970.5
12 14.06 Ю 7-11
{14}
50 км 8/0
[Ac trans Cs]
+24.5 +10.7 42 +26 +26 жарко 996.0 969.5 +25.8
15 14.06 Ю 6-10
{14}
50 км 8/0
[Ac trans Cs]
+22.6 +10.2 45 +24 +24 комфорт 996.0 969.4
18 14.06 ЮЗ 3
{14}
20 км слаб. ливневой дождь 10/10 600 м
[Cb cap]
+17.2 +12.5 74 +17 +17 998.3 971.2
21 14.06 штиль 0 50 км в посл. час ливневой дождь 10/10 600 м
[Cb cap]
+14.8 +13.6 93 +14 +14 999.1 971.8
00 15.06 ЮЗ 2 50 км {ливн. осадки} 10/10 600 м
[Cb cap]
+11.8 +9.6 86 +11 +11 1002.5 974.7 +11.7 3
03 15.06 ЮЗ 1 50 км 9/3 1000 м
[Sc Ac trans Cs]
+12.1 +8.0 76 +12 +17 1003.2 975.4 +10.5
06 15.06 ЮЗ 2 50 км 8/4 600 м
[Cu med, cong Ac trans Ci sp]
+16.7 +9.0 60 +17 +21 1002.4 975.1
09 15.06 ЮЗ 3 50 км 3/3 600 м
[Cu hum]
+19.7 +3.8 35 +20 +24 1001.8 974.8
12 15.06 З 3 50 км 3/3 1000 м
[Sc diur, vesp]
+19.7 +3.8 35 +20 +21 1002.9 975.8 +20.4
15 15.06 штиль 0 50 км 4/0
[Ac trans]
+16.7 +5.0 46 +17 +17 1003.9 976.5
18 15.06 ЮЗ 1 50 км 9/0
[Ac trans]
+11.9 +2.5 53 +12 +12 1006.7 978.8
21 15.06 штиль 0 50 км 8/0
[Ac cast]
+9.2 +5.9 80 +9 +9 1008.5 980.3
00 16.06 В 1 50 км 6/0
[Ac lent Ci fib]
+15.5 +4.1 47 +16 +21 1009.4 981.7 +8.4
03 16.06 СВ 2 50 км 5/1 600 м
[Cu hum Ac trans Ci fib]
+18.4 +4.1 39 +19 +26 1010.3 982.8
06 16.06 СЗ 3 50 км 6/6 600 м
[Cu hum]
+19.3 +4.6 38 +20 +24 1011.2 983.8
09 16.06 СЗ 2 50 км 3/3 600 м
[Cu hum]
+20.7 +4.8 35 +22 +26 комфорт 1012.0 984.7
12 16.06 С 2 50 км 1/0
[Ci fib]
+20.8 +4.7 35 +22 +24 комфорт 1012.7 985.4 +21.4
15 16.06 СВ 1 50 км 4/0
[Ci fib]
+18.7 +5.4 42 +20 +20 1013.1 985.7
18 16.06 штиль 0 50 км 8/0
[Ac trans Ci fib]
+12.6 +4.8 59 +12 +12 1014.0 986.0
21 16.06 В 2 50 км 10/0
[Ac lent Cs]
+13.5 +5.7 59 +13 +13 1013.8 985.9
00 17.06 В 5 50 км 6/0
[Ac lent Ci fib]
+20.2 +8.6 47 +21 +23 комфорт 1012.4 985.1 +10.7
03 17.06 ЮВ 5 50 км 4/0
[Cc]
+22.7 +7.9 39 +24 +29 комфорт 1010.7 983.7
06 17.06 Ю 3 50 км 3/0
[Cc]
+25.8 +9.7 36 +26 +35 жарко 1008.4 981.7
09 17.06 ЮВ 5 50 км 8/1 600 м
[Cu hum Ci fib]
+28.1 +11.7 36 +29 +32 жарко 1005.5 979.1
12 17.06 В 4 50 км 10/0
[Ac trans Cs]
+28.4 +13.3 39 +30 +31 жарко 1003.5 977.2 +28.9
15 17.06 В 2 50 км 10/0
[Ac trans Cs]
+24.1 +10.7 43 +25 +25 комфорт 1003.3 976.7
18 17.06 СВ 1 50 км 10/0
[Ac trans Cs]
+19.1 +9.7 54 +21 +21 комфорт 1002.9 975.7
21 17.06 ЮВ 5 50 км 10/10 600 м
[Cb cap]
+21.7 +10.6 49 +23 +23 комфорт 1000.8 974.0
00 18.06 Ю 3 50 км 10/10 600 м
[Cb cap]
+21.5 +13.4 60 +24 +24 комфорт 999.8 973.0 +18.6
03 18.06 Ю 6-10
{10}
50 км 8/4 600 м
[Cb cap Ac lent Cs]
+25.1 +15.6 56 +28 +30 жарко 998.7 972.3
06 18.06 Ю 7-11
{11}
50 км 8/6 600 м
[Cb cap Ac cast]
+27.1 +15.7 50 +30 +31 душно 998.0 971.8
09 18.06 Ю 9-15
{16}
50 км {ливн. осадки} 9/6 600 м
[Cb cap Cs]
+22.7 +15.6 64 +27 +27 душно 999.6 973.0
12 18.06 З 3
{15}
50 км {ливн. осадки} 10/10 600 м
[Cb cap]
+18.7 +12.5 67 +20 +20 1002.7 975.5 +27.6 11
15 18.06 З 4 50 км 9/4 1000 м
[Sc Ac lent]
+16.5 +7.8 56 +16 +16 1005.6 978.2
18 18.06 ЮЗ 3 50 км 6/0
[Ac trans]
+13.0 +5.3 59 +12 +12 1009.1 981.2
21 18.06 ЮЗ 3 50 км 1/0
[Ac trans]
+12.0 +5.3 64 +11 +11 1010.8 982.8
00 19.06 ЮЗ 2 50 км ясно +16.8 +7.0 52 +17 +22 1012.2 984.6 +9.1
03 19.06 З 2 50 км 4/4 600 м
[Cu hum]
+19.8 +6.2 41 +21 +27 комфорт 1012.6 985.3
06 19.06 СЗ 2 50 км 3/3 600 м
[Cu hum]
+21.9 +6.1 36 +23 +30 комфорт 1012.1 984.9
09 19.06 ЮЗ 3 50 км 3/3 600 м
[Cu hum]
+24.2 +6.7 32 +24 +28 комфорт 1011.7 984.7
12 19.06 СВ 1 50 км 1/0
[Ci fib]
+23.7 +6.7 33 +24 +25 комфорт 1011.7 984.7 +24.6
15 19.06 ЮВ 1 50 км 1/0
[Ci fib]
+21.1 +6.0 37 +22 +22 комфорт 1012.5 985.2
18 19.06 В 2 50 км 3/0
[Ac trans Ci fib]
+9.6 +0.2 52 +8 +8 1014.2 985.8
21 19.06 В 2 50 км 10/0
[Ac lent Cc]
+15.3 +7.5 60 +15 +16 1013.7 985.9
00 20.06 В 2 50 км 8/0
[Ac lent Ci fib]
+19.7 +9.8 53 +21 +25 комфорт 1012.8 985.5 +9.5

 

Местоположение метеостанции Ярольин (Якутия, Россия): широта 67.13 долгота 108.50 высота над уровнем моря 236 м.

В архиве по умолчанию представлена погода в Ярольине за последнюю неделю. Архивные данные за месяц целиком и за предыдущие месяцы, начиная с января 2011 года, Вы можете получить, выбрав интересующий диапазон дат из раскрывающегося списка и нажав кнопку "Ввод!".


*Определитесь, кто Вы:
робот инопланетянин человек

Внимание! Время в таблицах - всемирное. Для получения местного времени необходимо прибавить поправку, которая равна 9 ч.

Смотрите также архив погоды в соседних городах и на ближайших метеорологических станциях:

Погода в Полярном (Якутия, Россия) (176 км)
Погода в Айхале (Якутия, Россия) (187 км)
Погода в Оленеке (Якутия, Россия) (224 км)
Погода в Шелагонцах (Якутия, Россия) (269 км)
Погода в Хабардино (Якутия, Россия) (335 км)
Погода в Джалинде (Якутия, Россия) (399 км)
Погода в Эйке (Якутия, Россия) (412 км)
Погода в Сухане (Якутия, Россия) (442 км)
Погода в Кислокане (Эвенкия, Россия) (449 км)
Погода в Туре (Эвенкия, Россия) (483 км)

Пояснения к столбцам:

Ветер - указаны скорость ветра в м/с - средняя за 10 мин, порывы в срок и между сроками (в фигурных скобках) и направление, откуда дует ветер: С - северный, СВ - северо-восточный, В - восточный, ЮВ - юго-восточный, Ю - южный, ЮЗ - юго-западный, З - западный, СЗ - северо-западный.
Видимость - горизонтальная дальность видимости в метрах или километрах. При видимости от 1 до 10 км при отсутствии осадков обычно наблюдается дымка, при ухудшении видимости до 1 км и менее - туман. В сухую погоду видимость может ухудшаться дымом, пылью или мглою.
Явления - указаны атмосферные явления, наблюдавшиеся в срок или в последний час перед сроком; фигурными скобками обозначены явления, наблюдавшиеся между сроками (за 1-3 часа до срока); квадратными скобками обозначены град или гололедные отложения с указанием их диаметра в мм.
Облачность - указаны через наклонную черту общая и нижняя облачность в баллах и высота нижней границы облаков в метрах; квадратными скобками обозначены формы облаков: Ci - перистые, Cs - перисто-слоистые, Cc - перисто-кучевые, Ac - высококучевые, As - высокослоистые, Sc - слоисто-кучевые, Ns - слоисто-дождевые, Cu - кучевые, Cb - кучево-дождевые. Подробнее классификацию облаков см. в Атласе облаков (PDF).
T - Температура воздуха - температура, измеренная на высоте 2 м над землей.
Td - Температура точки росы - температура, при понижении до которой содержащийся в воздухе водяной пар достигнет насыщения.
f - Относительная влажность воздуха - влажноcть воздуха, измеренная на высоте 2 м над землей.
Te - Эффективная температура - температура, которую ощущает одетый по сезону человек в тени. Характеристика душности погоды. При расчете учитывается влияние влажности воздуха и скорости ветра на теплоощущения человека.
Tes - Эффективная температура на солнце - температура, которую ощущает человек, с поправкой на солнечный нагрев. Характеристика знойности погоды. Зависит от высоты солнца над горизонтом, облачности и скорости ветра. Ночью, в пасмурную погоду, а также при ветре 12 м/с и более поправка равна нулю.
P - Атмосферное давление - приведенное к уровню моря атмосферное давление.
Po - Атмосферное давление - измеренное на уровне метеостанции атмосферное давление.
Tmin - Минимальная температура - минимум температуры воздуха на высоте 2 м над землей.
Tmax - Максимальная температура - максимум температуры воздуха на высоте 2 м над землей.
R - Количество осадков - Количество выпавших осадков за период времени, мм. При наведении курсора мыши на число - период времени, за который выпало указанное количество осадков.
R24 - Количество осадков - Количество выпавших осадков за 24 часа, мм.
S - Снежный покров - Высота снежного покрова, см. При наведении курсора мыши на число - состояние снежного покрова и степень покрытия местности в баллах.